IRIDIUM 60 [+] (25276 NORAD) Tracking and Keplerian Element Data

This shows tracking and keplerian element data for the satellite.

Feedback or suggestion? Click here.




ElementValue
Catalog25276
NameIRIDIUM 60 [+]
Epoch Orbit8404
Epoch Day348.70253781
Epoch Year2018
RAAN58.9607
Inclination86.3971
Eccentricity0.0002216
Argument of Perigee94.4211
Mean Anonmoly265.7238
Mean Motion14.3422391
Decay Rate1.56E-06
L11 25276U 98019E 18348.70253781 .00000156 00000-0 48529-4 0 9990
L22 25276 86.3971 58.9607 0002216 94.4211 265.7238 14.34223910 84043

Live tracking and technical data element details for IRIDIUM 60 [+] (NORAD 25276). IRIDIUM 60 [+] can be tracked NOW for your location showing map with azimuth and elevation plus other details from your city location.

Track the satellite on the map from your city or location and see movement details for azimuth, elevation, latitude, longitude, range, height, and movement on the map or in text.







IsCatalogInMostPopularTable: catalog: 25276, numindb: 56
Update: records affected: 1



GetName: 25276 IRIDIUM 60 [+]

Hit Count: updated at: Sat, 15 Dec 2018 18:56:51 GMT